[[{"header":{"parameterUnit":"m.s-1","parameterCategory":1,"la1":30.2991,"la2":30.254,"lo1":-89.0895,"lo2":-89.0444,"dy":0.0017,"dx":0.0017,"nx":28,"ny":28,"refTime":"2023-09-06T09:00:00:Z","depth":0,"parameterNumber":2,"parameterNumberName":"U-component_of_WINDS"},"data":[0,0,0,0,0,0,0,0,0,0,0,0,0,0,0,0,0,0,0,0,0,0,0,0,0,0,0,0,0,0,0,0,0,0,0,0,0,0,0,0,0,0,0,0,0,0,0,0,0,0,0,0,0,0,0,0,0,0,4.6143,4.6145,0,4.6305,4.6307,4.6308,4.6257,4.6254,4.625,4.6247,4.6415,4.6422,4.643,0,0,0,0,0,0,0,0,0,0,0,0,0,4.5791,4.5798,4.6143,4.6145,4.6147,4.6304,4.6307,4.6309,4.6258,4.6253,4.6249,4.6245,4.6412,4.6421,4.643,0,0,0,0,0,0,0,0,0,0,0,0,0,4.5947,4.58,4.6142,4.614,4.6142,4.6304,4.6307,4.6309,4.6259,4.6253,4.6248,4.6243,4.6409,4.642,4.6432,4.6607,0,0,4.6467,4.6472,0,0,0,0,0,0,0,0,4.5939,4.596,4.6138,4.6141,4.6142,4.6255,4.6244,4.6409,4.626,4.6214,4.6247,4.6241,4.6366,4.6381,4.6422,4.6614,4.6622,4.6468,4.6475,4.648,4.6483,0,0,0,0,0,0,0,4.5928,4.5953,4.6207,4.6141,4.6144,4.6132,4.6148,4.6275,4.6317,4.6218,4.6214,4.6234,4.6366,4.6412,4.6426,4.6624,4.6468,4.6478,4.6485,4.6489,4.6967,4.6973,0,0,0,0,0,0,4.5915,4.5944,4.6202,4.6212,4.6026,4.6142,4.6161,4.6224,4.6316,4.6325,4.6238,4.6231,4.6394,4.6413,4.6432,4.6641,4.648,4.6491,4.6497,4.6962,4.6969,4.6975,0,0,0,0,0,0,4.5908,4.5939,4.6195,4.6077,4.6109,4.6154,4.6226,4.623,4.6275,4.6331,4.6339,4.6277,4.6391,4.6416,4.6563,4.6647,4.6496,4.6506,4.6955,4.6964,4.6972,4.7063,0,0,0,0,0,0,4.5898,4.5936,4.6003,4.6079,4.6115,4.6323,4.6231,4.6237,4.6295,4.6287,4.6369,4.6378,4.6389,4.6546,4.6575,4.666,4.6515,4.6948,4.6959,4.6969,4.7053,4.7074,4.7092,0,0,0,0,0,4.5886,4.6023,4.6006,4.6038,4.6199,4.6328,4.6349,4.6358,4.6302,4.637,4.6406,4.6375,4.6634,4.6562,4.6593,4.6683,4.6942,4.6956,4.6968,4.7044,4.707,4.7091,0,0,0,0,0,0,4.5955,4.6032,4.6015,4.6181,4.6248,4.6319,4.6404,4.6385,4.647,4.6459,4.6468,4.6487,4.6638,4.6676,4.6595,4.6857,4.678,4.68,4.6826,4.6851,4.687,4.6857,4.6525,0,0,0,0,0,4.599,4.6088,4.615,4.629,4.6325,4.6359,4.6416,4.6417,4.6487,4.6516,4.6562,4.6633,4.6729,4.6793,4.6885,4.7059,4.7076,4.7136,4.7156,4.7172,4.7188,4.7282,4.7309,4.7018,4.7018,4.7017,0,0,4.6062,4.6116,4.6178,4.6305,4.6358,4.6459,4.6383,4.6494,4.6569,4.6533,4.6674,4.6712,4.679,4.6952,4.7025,4.6988,4.7273,4.7188,4.72,4.7208,4.7298,4.7326,4.735,4.7026,4.7025,4.7023,0,0,4.6245,4.6296,4.6418,4.6472,4.6553,4.6575,4.6604,4.6679,4.6702,4.6844,4.6819,4.6909,4.7076,4.7133,4.7184,4.739,4.7365,4.742,4.7521,4.7612,4.7635,4.7656,4.7728,4.7754,4.7437,4.7437,4.7437,0,4.6324,4.6475,4.6483,4.6596,4.6653,4.6625,4.6748,4.6801,4.6907,4.6947,4.6904,4.7113,4.7164,4.7338,4.7388,4.7431,4.7464,4.7409,4.7631,4.7652,4.7671,4.774,4.7767,4.7443,4.7442,4.7442,4.7441,0,4.6568,4.6674,4.6763,4.6866,4.6933,4.7051,4.7077,4.7144,4.7141,4.7167,4.7313,4.7374,4.7477,4.7519,4.7517,4.7693,4.7667,4.7628,4.755,4.7705,4.7769,4.7796,4.7452,4.7449,4.7448,4.7446,0,0,4.6797,4.6904,4.6936,4.6982,4.7069,4.7151,4.7269,4.7369,4.7426,4.7502,4.76,4.7742,4.7706,4.7764,4.7768,4.7849,4.8007,4.78,4.7802,4.7834,4.8203,4.823,4.8261,4.7992,4.7997,4.8001,4.8196,0,4.6985,4.7189,4.7201,4.7386,4.7483,4.7459,4.7561,4.7626,4.7655,4.7742,4.7774,4.7874,4.782,4.7855,4.7934,4.7971,4.8081,4.7957,4.8082,4.8087,4.806,4.8295,4.8324,4.8505,4.8222,4.8226,4.8229,0,4.7232,4.7314,4.7509,4.7582,4.7624,4.7715,4.7808,4.7892,4.7966,4.7981,4.8047,4.804,4.816,4.808,4.8245,4.8161,4.8213,4.824,4.8247,4.8257,4.8165,4.8309,4.8563,4.8589,4.8269,4.8266,4.8263,0,4.7376,4.7536,4.7673,4.7714,4.7804,4.7868,4.7909,4.7977,4.8037,4.812,4.8159,4.8255,4.8307,4.8381,4.8401,4.8341,4.8566,4.8487,4.8581,4.8581,4.8627,4.8624,4.889,4.8666,4.8665,4.8665,4.8664,0,4.7584,4.7704,4.7739,4.7823,4.7957,4.797,4.8102,4.8138,4.82,4.8291,4.8277,4.8363,4.8384,4.8475,4.8491,4.8625,4.8649,4.8665,4.8667,4.8665,4.8662,4.8697,4.8684,4.8672,4.867,4.8669,4.8668,0,4.7767,4.7795,4.7943,4.8016,4.8038,4.8133,4.8196,4.8277,4.8304,4.842,4.8448,4.8491,4.8597,4.8624,4.8751,4.8762,4.8919,4.8911,4.8894,4.8893,4.8984,4.8974,4.928,4.932,4.9072,4.9074,4.9076,0,4.7896,4.7987,4.8071,4.813,4.8173,4.827,4.8331,4.8348,4.8413,4.8504,4.8574,4.8678,4.8761,4.8931,4.8974,4.9071,4.9064,4.9165,4.9078,4.9072,4.9063,4.9056,4.9064,4.918,4.9183,4.9185,4.9187,0,4.8122,4.8131,4.822,4.8314,4.8387,4.8462,4.8534,4.8584,4.8611,4.8684,4.8791,4.8856,4.8986,4.9088,4.9186,4.9228,4.9212,4.9214,4.924,4.9237,4.9222,4.9229,4.8936,4.9206,4.9204,4.9203,4.9202,4.9201,4.828,4.836,4.8431,4.853,4.8586,4.8653,4.8733,4.8771,4.886,4.8966,4.8971,4.9088,4.916,4.9289,4.9337,4.9429,4.9398,4.9437,4.9447,4.9455,4.9462,4.921,4.9447,4.9447,4.9446,4.9446,4.9445,0,4.8503,4.8548,4.8639,4.8739,4.8818,4.8796,4.8875,4.8941,4.9044,4.9112,4.9195,4.9319,4.9419,4.9471,4.957,4.9633,4.9628,4.9659,4.9653,4.9663,4.9485,4.9451,4.9661,4.9661,4.9661,4.9661,4.9661,4.9661,4.8628,4.8761,4.878,4.8942,4.8986,4.9099,4.9146,4.9208,4.9263,4.9401,4.9484,4.9517,4.9579,4.9683,4.9774,4.9787,4.9823,4.9857,4.9866,4.9697,4.9675,4.9654,4.9622,4.9865,4.9866,5.0036,5.0037,5.0038]},{"header":{"parameterUnit":"m.s-1","parameterCategory":1,"la1":30.2991,"la2":30.254,"lo1":-89.0895,"lo2":-89.0444,"dy":0.0017,"dx":0.0017,"nx":28,"ny":28,"refTime":"2023-09-06T09:00:00:Z","depth":0,"parameterNumber":3,"parameterNumberName":"V-component_of_WINDS"},"data":[0,0,0,0,0,0,0,0,0,0,0,0,0,0,0,0,0,0,0,0,0,0,0,0,0,0,0,0,0,0,0,0,0,0,0,0,0,0,0,0,0,0,0,0,0,0,0,0,0,0,0,0,0,0,0,0,0,0,1.8644,1.8645,0,1.8788,1.8789,1.8791,1.881,1.8809,1.8808,1.8806,1.8954,1.8959,1.8964,0,0,0,0,0,0,0,0,0,0,0,0,0,1.8386,1.839,1.8644,1.8646,1.8647,1.8787,1.8789,1.8791,1.881,1.8809,1.8807,1.8806,1.8952,1.8958,1.8965,0,0,0,0,0,0,0,0,0,0,0,0,0,1.851,1.8392,1.8643,1.8674,1.8678,1.8787,1.8789,1.8792,1.8811,1.8809,1.8807,1.8805,1.895,1.8958,1.8965,1.9054,0,0,1.8989,1.8993,0,0,0,0,0,0,0,0,1.8503,1.852,1.8668,1.8672,1.8677,1.8779,1.8752,1.888,1.8811,1.876,1.8806,1.8804,1.8897,1.8909,1.8941,1.9061,1.9067,1.899,1.8995,1.8998,1.9,0,0,0,0,0,0,0,1.8495,1.8514,1.8701,1.867,1.8675,1.868,1.8696,1.8777,1.8839,1.8765,1.8766,1.8783,1.8899,1.8933,1.8944,1.907,1.899,1.8997,1.9001,1.9004,1.9269,1.9271,0,0,0,0,0,0,1.848,1.8506,1.8696,1.8705,1.8583,1.8686,1.8704,1.8748,1.8838,1.8849,1.8785,1.8783,1.8921,1.8935,1.895,1.9059,1.8998,1.9005,1.901,1.9266,1.9269,1.9272,0,0,0,0,0,0,1.8475,1.8497,1.869,1.8606,1.8631,1.8693,1.8743,1.8752,1.8786,1.8853,1.8864,1.8808,1.892,1.8939,1.9028,1.9064,1.9009,1.9016,1.9263,1.9267,1.927,1.9278,0,0,0,0,0,0,1.8467,1.8495,1.853,1.8607,1.8636,1.8766,1.8745,1.8756,1.8799,1.8799,1.8878,1.8889,1.892,1.9016,1.9035,1.9074,1.9022,1.926,1.9265,1.9269,1.9275,1.9282,1.9287,0,0,0,0,0,1.8458,1.8527,1.8531,1.8554,1.868,1.8768,1.8785,1.8819,1.8802,1.8837,1.888,1.8886,1.9057,1.9025,1.9047,1.9089,1.9258,1.9264,1.9269,1.9272,1.928,1.9287,0,0,0,0,0,0,1.8453,1.8537,1.8544,1.8639,1.8696,1.8771,1.8817,1.8827,1.889,1.8887,1.8927,1.8945,1.9032,1.9069,1.9032,1.9178,1.9156,1.9166,1.9151,1.9159,1.9165,1.9155,1.9028,0,0,0,0,0,1.8462,1.8527,1.8597,1.8675,1.8703,1.8755,1.8795,1.8816,1.8877,1.8901,1.8951,1.901,1.9077,1.912,1.9185,1.928,1.9297,1.9319,1.9325,1.933,1.9339,1.9391,1.9401,1.9289,1.9289,1.9289,0,0,1.8484,1.8538,1.8577,1.8675,1.8722,1.8788,1.8776,1.8846,1.8895,1.8912,1.8999,1.9037,1.9106,1.9198,1.9241,1.9231,1.9373,1.9337,1.934,1.9346,1.9397,1.9408,1.9417,1.9292,1.9292,1.9291,0,0,1.8556,1.8604,1.8673,1.872,1.8791,1.8825,1.8841,1.8915,1.894,1.9028,1.9042,1.9101,1.9215,1.9263,1.9302,1.9391,1.9399,1.9411,1.9443,1.9493,1.9502,1.951,1.9542,1.9552,1.9419,1.9419,1.9419,0,1.8574,1.8674,1.8708,1.8778,1.882,1.8838,1.8908,1.8952,1.9041,1.907,1.9058,1.9201,1.9248,1.9351,1.9373,1.9404,1.9424,1.9403,1.9498,1.9507,1.9515,1.9545,1.9557,1.942,1.942,1.942,1.942,0,1.8692,1.8761,1.8808,1.8893,1.8941,1.901,1.9054,1.9099,1.9115,1.915,1.9238,1.9295,1.9372,1.9398,1.9415,1.9503,1.9495,1.949,1.9469,1.9526,1.9555,1.9567,1.9421,1.9421,1.9421,1.942,0,0,1.8767,1.8868,1.8885,1.8923,1.9001,1.9055,1.9125,1.9199,1.9236,1.9296,1.9356,1.9451,1.9447,1.9491,1.9513,1.9557,1.9623,1.9547,1.9549,1.9559,1.9723,1.9726,1.9739,1.9628,1.9631,1.9632,1.9717,0,1.8848,1.8974,1.9005,1.9112,1.9176,1.9192,1.9253,1.9307,1.9341,1.94,1.9437,1.9504,1.9493,1.952,1.9564,1.9606,1.9657,1.96,1.9684,1.9686,1.9667,1.9755,1.9759,1.9836,1.9729,1.9731,1.9732,0,1.8961,1.9022,1.9135,1.9204,1.9232,1.9286,1.9356,1.9412,1.9473,1.9495,1.9544,1.9561,1.9634,1.9608,1.9708,1.9669,1.9705,1.973,1.9734,1.9743,1.9713,1.9767,1.9862,1.9874,1.9751,1.9749,1.9748,0,1.9004,1.9115,1.9196,1.9228,1.9311,1.9348,1.9385,1.9444,1.9486,1.9547,1.9575,1.9644,1.9682,1.9734,1.977,1.9747,1.9867,1.9844,1.9887,1.9886,1.9912,1.991,2.0014,1.9934,1.9934,1.9934,1.9934,0,1.9092,1.916,1.9217,1.9267,1.9344,1.9379,1.9454,1.949,1.9543,1.96,1.9618,1.9672,1.9715,1.9774,1.9802,1.9881,1.9898,1.9917,1.9923,1.9915,1.9913,1.994,1.9936,1.9937,1.9936,1.9936,1.9935,0,1.9154,1.9194,1.9284,1.9354,1.9374,1.9427,1.9487,1.9536,1.9569,1.9642,1.966,1.9713,1.9783,1.9824,1.9912,1.9931,2.0018,2.0022,1.9998,2.0001,2.0041,2.0037,2.0167,2.0186,2.0093,2.0093,2.0094,0,1.9208,1.926,1.9336,1.9375,1.9412,1.9475,1.9518,1.9555,1.9598,1.9671,1.9712,1.9783,1.9842,1.9953,1.9999,2.0066,2.0072,2.0113,2.0083,2.0073,2.0073,2.007,2.0075,2.0119,2.012,2.012,2.0121,0,1.9299,1.9316,1.9377,1.9445,1.9495,1.9551,1.9606,1.9637,1.9682,1.973,1.9802,1.9848,1.9937,2.0008,2.0079,2.0115,2.0126,2.013,2.0143,2.0136,2.0119,2.0129,2.0012,2.0127,2.0126,2.0126,2.0126,2.0125,1.9358,1.9406,1.9466,1.9533,1.9578,1.9628,1.9677,1.9717,1.9777,1.9853,1.987,1.9946,2.0005,2.0101,2.0139,2.0198,2.0191,2.0211,2.0216,2.022,2.0221,2.0109,2.0211,2.0211,2.0211,2.0211,2.0211,0,1.945,1.949,1.9551,1.9627,1.9679,1.9683,1.9744,1.9788,1.9854,1.9908,1.9965,2.0047,2.0114,2.0165,2.0234,2.0272,2.0278,2.0288,2.0286,2.0295,2.0224,2.0205,2.0282,2.0282,2.0282,2.0282,2.0282,2.0282,1.9505,1.9585,1.9608,1.971,1.9749,1.9823,1.9857,1.9903,1.9946,2.0037,2.0093,2.0125,2.0178,2.0251,2.0313,2.0326,2.035,2.036,2.0374,2.0307,2.03,2.0292,2.0275,2.0365,2.0365,2.044,2.044,2.0441]}]]